Weather History for Owensboro, KY

Change the Weather History Date:

Sunday, February 3, 2013

  Actual Average Record
Temperature  
Mean Temperature 28 °F -  
Max Temperature 34 °F 42 °F 66 °F (1962)
Min Temperature 21 °F 24 °F -7 °F (1985)
Degree Days  
Heating Degree Days 37    
Moisture  
Dew Point 27 °F    
Average Humidity 88    
Maximum Humidity 100    
Minimum Humidity 69    
Precipitation  
Precipitation 0.03 in - - ()
Sea Level Pressure  
Sea Level Pressure 30.08 in    
Wind  
Wind Speed 4 mph (WSW)    
Max Wind Speed 16 mph    
Max Gust Speed -    
Visibility 6 miles    
Events Snow    
Averages and records for this station are not official NWS values.
T = Trace of Precipitation, MM = Missing Value Source: NWS Daily Summary

Daily Weather History Graph

Daily Weather History Graph

Search for Another Location

Airport:

Trip Planner

Search our weather history database for the weather conditions in past years. The results will help you decide how hot, cold, wet, or windy it might be!

Date:

Astronomy

Feb. 03, 2013 Rise Set
Actual Time 6:50 AM CST 5:14 PM CST
Civil Twilight 6:23 AM CST 5:42 PM CST
Nautical Twilight 5:51 AM CST 6:13 PM CST
Astronomical Twilight 5:21 AM CST 6:44 PM CST
Moon 12:17 AM CST (2/3) 10:52 AM CST (2/3)
Length of Visible Light 11h 19m
Length of Day
10h 24m
Waning Gibbous, 48% of the Moon is Illuminated
Feb 3
Waning Gibbous
Feb 10
New
Feb 17
First Quarter
Feb 25
Full
Mar 4
Last Quarter

Hourly Weather History & Observations

Time (CST) Temp. Windchill Dew Point Humidity Pressure Visibility Wind Dir Wind Speed Gust Speed Precip Events Conditions
12:56 AM 30.0 °F - 26.1 °F 85% 30.09 in 10.0 mi Calm Calm - N/A   Overcast
2:56 AM 31.1 °F - 27.1 °F 85% 30.04 in 10.0 mi Calm Calm - 0.00 in   Mostly Cloudy
3:09 AM 30.2 °F - 28.4 °F 93% 30.04 in 1.8 mi Calm Calm - 0.00 in Snow Light Snow
3:12 AM 30.2 °F 24.3 °F 28.4 °F 93% 30.04 in 1.2 mi WSW 5.8 mph - 0.00 in Snow Light Snow
3:15 AM 30.2 °F 24.3 °F 28.4 °F 93% 30.04 in 1.0 mi WSW 5.8 mph - 0.00 in Snow Light Snow
3:23 AM 30.2 °F 24.3 °F 28.4 °F 93% 30.04 in 0.8 mi WSW 5.8 mph - 0.00 in Snow Light Snow
3:56 AM 29.1 °F 24.1 °F 29.1 °F 100% 30.03 in 1.0 mi SW 4.6 mph - 0.01 in Snow Light Snow
4:06 AM 30.2 °F 25.4 °F 28.4 °F 93% 30.02 in 1.2 mi SSW 4.6 mph - 0.00 in Snow Light Snow
4:36 AM 28.4 °F 24.6 °F 28.4 °F 100% 30.00 in 2.0 mi SSW 3.5 mph - 0.01 in Snow Light Snow
4:42 AM 28.4 °F 24.6 °F 28.4 °F 100% 30.00 in 2.5 mi South 3.5 mph - 0.01 in Snow Light Snow
5:12 AM 30.2 °F - 28.4 °F 93% 30.00 in 4.0 mi Calm Calm - 0.01 in Snow Light Snow
5:18 AM 30.2 °F - 28.4 °F 93% 30.01 in 4.0 mi Calm Calm - 0.01 in Snow Light Snow
5:27 AM 30.2 °F - 28.4 °F 93% 30.01 in 2.5 mi Calm Calm - 0.01 in Snow Light Snow
5:37 AM 30.2 °F - 28.4 °F 93% 30.01 in 4.0 mi Calm Calm - 0.02 in   Overcast
5:56 AM 30.0 °F - 29.1 °F 96% 30.02 in 3.0 mi Calm Calm - 0.02 in   Overcast
6:14 AM 30.2 °F - 28.4 °F 93% 30.01 in 3.0 mi Calm Calm - N/A   Overcast
6:46 AM 30.2 °F - 28.4 °F 93% 30.01 in 2.5 mi Calm Calm - N/A   Overcast
6:56 AM 30.0 °F - 29.1 °F 96% 30.03 in 2.5 mi Calm Calm - N/A   Overcast
7:56 AM 31.1 °F 26.4 °F 30.0 °F 96% 30.05 in 2.0 mi West 4.6 mph - N/A   Overcast
8:56 AM 32.9 °F 24.7 °F 31.1 °F 93% 30.05 in 3.0 mi West 10.4 mph - N/A   Overcast
9:45 AM 33.8 °F 24.8 °F 30.2 °F 87% 30.06 in 7.0 mi WNW 12.7 mph - N/A   Overcast
9:56 AM 34.0 °F 25.0 °F 30.0 °F 85% 30.08 in 7.0 mi WNW 12.7 mph - N/A   Overcast
10:56 AM 34.0 °F 26.0 °F 29.1 °F 82% 30.12 in 7.0 mi WNW 10.4 mph - 0.00 in   Overcast
11:56 AM 32.9 °F 24.7 °F 28.0 °F 82% 30.14 in 10.0 mi WNW 10.4 mph - 0.00 in   Overcast
12:56 PM 34.0 °F 26.0 °F 29.1 °F 82% 30.13 in 10.0 mi WNW 10.4 mph - 0.00 in   Overcast
1:56 PM 32.9 °F 23.7 °F 28.0 °F 82% 30.14 in 10.0 mi NW 12.7 mph - 0.00 in   Overcast
2:56 PM 32.9 °F 22.4 °F 28.0 °F 82% 30.16 in 7.0 mi WNW 16.1 mph - 0.00 in   Overcast
3:56 PM 32.0 °F 21.2 °F 26.1 °F 79% 30.18 in 10.0 mi WNW 16.1 mph - N/A   Mostly Cloudy
4:56 PM 31.1 °F 22.4 °F 23.0 °F 72% 30.19 in 10.0 mi WNW 10.4 mph - N/A   Mostly Cloudy
5:56 PM 29.1 °F 22.1 °F 20.1 °F 69% 30.20 in 10.0 mi WNW 6.9 mph - N/A   Clear
6:56 PM 25.2 °F 18.3 °F 19.0 °F 78% 30.21 in 10.0 mi WSW 5.8 mph - N/A   Clear
7:56 PM 23.0 °F 15.8 °F 18.1 °F 82% 30.19 in 10.0 mi SSW 5.8 mph - N/A   Clear
8:56 PM 23.0 °F - 19.0 °F 85% 30.20 in 10.0 mi Calm Calm - N/A   Clear
9:56 PM 22.1 °F 13.7 °F 19.0 °F 88% 30.17 in 10.0 mi SSE 6.9 mph - N/A   Clear
10:56 PM 23.0 °F 17.0 °F 19.0 °F 85% 30.16 in 10.0 mi SSE 4.6 mph - N/A   Clear
11:56 PM 21.0 °F 14.6 °F 18.1 °F 89% 30.15 in 10.0 mi South 4.6 mph - N/A   Clear